Location: Newark
(52.5667°N, 8.8000°W)
Time: 06:22:57
(UTC+00:00)

N. Korean satellite - Pass Details

Date: 01 February 2020
Orbit: 456 x 505 km, 97.2° (Epoch: 27 February)

Event Time Altitude Azimuth Distance (km) Brightness Sun altitude
Rises 05:49:35 0° 22° (NNE) 2,563 10.5 -22.5°
Reaches altitude 10° 05:51:51 10° 34° (NE) 1,686 9.7 -22.2°
Maximum altitude 05:55:01 28° 95° (E) 961 8.8 -21.7°
Drops below altitude 10° 05:58:12 10° 156° (SSE) 1,695 9.6 -21.2°
Sets 06:00:30 0° 168° (SSE) 2,580 10.4 -20.9°
